Location: Flitcham
(52.8000°N, 0.5667°E)
Time: 20:28:23
(UTC+00:00)

Okean O Rocket - Pass Details

Date: 15 May 2026
Orbit: 614 x 633 km, 98.0° (Epoch: 8 June)

Event Time Altitude Azimuth Distance (km) Brightness Sun altitude
Exits shadow 21:29:46 - 197° (SSW) 2,490 4.3 -11.7°
Reaches altitude 10° 21:31:11 10° 204° (SSW) 1,972 3.8 -11.8°
Maximum altitude 21:34:56 29° 265° (W) 1,139 3.2 -12.1°
Drops below altitude 10° 21:38:42 10° 326° (NNW) 1,988 5.7 -12.4°
Sets 21:41:09 0° 338° (NNW) 2,900 6.9 -12.6°
